sat.trackr.live / text

‹ back to catalog

LYRA-1

NORAD 62664 · 2025-009BH

PAYLOAD ACTIVE UNKNOWN

§ Identity

Operator
Country
AUS
Launch date
2025-01-14
Launch site
AFWTR
Launch vehicle
Mass (kg)
RCS (m²)

External: N2YO · Heavens-Above · Gunter

§ Orbital elements

Epoch: 2026-09-22T17:19:03.057024Z

Period
94.72 min
Inclination
97.3903°
Eccentricity
0.0008115
Mean motion
15.20318838 rev/d
Perigee alt
499.3 km
Apogee alt
510.5 km
Semi-major
6,883.0 km
B*
2.6994e-4
RAAN
338.3198°
Arg perigee
203.0187°
Mean anomaly
157.0686°
Rev number
9,323

§ Raw data

LYRA-11 62664U 25009BH  26265.72156316  .00005805  00000+0  26994-3 0  99922 62664  97.3903 338.3198 0008115 203.0187 157.0686 15.20318838 93237

JSON: /api/v1/satellites/62664 · /tle

For live sub-satellite position, see the globe view (requires WebGL).

§ Visibility from observer

Set your observer location to see the next 7 days of passes ≥ 10°. The values pass through the URL so the page stays shareable.

No JS? Fill the form by hand. The geolocation button needs JavaScript.

§ Radio — SatNOGS DB

ModeDescriptionDownlinkUplink
FSK Mode U - Telemetry 400.500 MHz

1 transmitter · refreshed weekly from db.satnogs.org